Flag for Cabo Verde Weather past 2 weeks in Santa Maria, Cabo Verde

73 °F

Partly sunny.

Feels Like: 76 °F
Forecast: 71 / 80 °F
Wind: 6 mph from Northeast

Location: Sal

Current Time: Nov 28, 2015 at 9:15:55 AM

Latest Report: Nov 28, 2015 at 8:00 AM

Visibility: N/A

Pressure: 29.98 "Hg

Humidity: 69%

Dew point: 63 °F

Location of Santa MariaLocation

Historic Weather in Santa Maria — Graph


Santa Maria temperature yesterday

Maximum temperature yesterday: 81 °F (at 2:00 PM)
Minimum temperature yesterday: 72 °F (at 2:00 AM)
Average temperature yesterday: 75 °F

Past Weeks' High & Low Weather Summary

High86 °F (Nov 13, 1:00 PM)89% (Nov 15, 8:00 PM)30.09 "Hg (Nov 15, 8:00 PM)
Low70 °F (Nov 26, 5:00 AM)43% (Nov 15, 1:00 PM)29.89 "Hg (Nov 18, 2:00 PM)
Average78 °F66%29.98 "Hg
* Reported Nov 13 8:00 AM — Nov 28 8:00 AM, Santa Maria, Weather by CustomWeather, © 2015

Note: Actual official high and low records may vary slightly from our data, if they occured in-between our weather recording intervals... More about our weather records


Santa Maria weather history for previous 24 hours

Time TempWeatherWind HumidityBarometerVisibility
8:00 AM
Sat, Nov 28
73 °FPartly sunny.6 mph69%29.98 "HgN/A
7:00 AM73 °FPartly sunny.7 mph69%29.95 "HgN/A
5:00 AM73 °FBroken clouds.8 mph69%29.92 "Hg6 mi
4:00 AM73 °FPassing clouds.7 mph69%29.95 "Hg6 mi
3:00 AM73 °FPassing clouds.6 mph69%29.95 "Hg6 mi
2:00 AM73 °FPassing clouds.6 mph69%29.95 "Hg5 mi
1:00 AM73 °FPassing clouds.8 mph69%29.98 "Hg5 mi
12:00 AM73 °FPassing clouds.8 mph69%29.98 "Hg5 mi
11:00 PM
Fri, Nov 27
73 °FPartly cloudy.7 mph69%30.01 "Hg5 mi
10:00 PM73 °FPartly cloudy.8 mph69%30.01 "Hg5 mi
9:00 PM73 °FPartly cloudy.8 mph69%29.98 "Hg5 mi
8:00 PM73 °FPartly cloudy.8 mph69%29.98 "Hg5 mi
7:00 PM73 °FPartly cloudy.9 mph69%29.98 "Hg5 mi
6:00 PM75 °FPartly cloudy.10 mph65%29.95 "Hg5 mi
5:00 PM75 °FPartly cloudy.13 mph65%29.89 "Hg5 mi
4:00 PM77 °FPartly cloudy.13 mph57%29.92 "Hg5 mi
3:00 PM79 °FPartly sunny.15 mph58%29.92 "Hg5 mi
2:00 PM81 °FBroken clouds.13 mph58%29.92 "Hg5 mi
1:00 PM79 °FBroken clouds.13 mph61%29.95 "Hg4 mi
12:00 PM77 °FBroken clouds.16 mph65%29.98 "Hg4 mi
11:00 AM77 °FBroken clouds.15 mph61%29.98 "Hg4 mi
10:00 AM77 °FBroken clouds.15 mph61%30.01 "Hg4 mi
9:00 AM75 °FBroken clouds.14 mph69%29.98 "Hg4 mi
Weather by CustomWeather, © 2015

See weather overviewHow to use our weather pages